sat.trackr.live / text

‹ back to catalog

STARLINK-36291

NORAD 67195 · 2025-304D

PAYLOAD ACTIVE UNKNOWN

§ Identity

Operator
Country
US
Launch date
2025-12-17
Launch site
AFWTR
Launch vehicle
Mass (kg)
RCS (m²)

Purposes: comms

External: N2YO · Heavens-Above · Gunter

§ Orbital elements

Epoch: 2026-05-24T22:57:48.172320Z

Period
96.11 min
Inclination
70.0021°
Eccentricity
0.0002826
Mean motion
14.98336540 rev/d
Perigee alt
570.1 km
Apogee alt
574.0 km
Semi-major
6,950.2 km
B*
2.4490e-4
RAAN
342.3645°
Arg perigee
266.1207°
Mean anomaly
93.9629°
Rev number
2,530

§ Raw data

STARLINK-362911 67195U 25304D   26144.95680755  .00002831  00000+0  24490-3 0  99992 67195  70.0021 342.3645 0002826 266.1207  93.9629 14.98336540 25300

JSON: /api/v1/satellites/67195 · /tle

For live sub-satellite position, see the globe view (requires WebGL).

§ Visibility from observer

Set your observer location to see the next 7 days of passes ≥ 10°. The values pass through the URL so the page stays shareable.

No JS? Fill the form by hand. The geolocation button needs JavaScript.